Weather in Zaisan

Kazakhstan     47˚28′03″N   84˚52′34″E
temp.,
°C
wind,
m/s
gust,
m/s
humid.,
%
clouds,
%
prec.,
mm/h
press.,
hPa
HPBL,
m
3 december, thu
thu300:00−17˚se01740 0.0 104120
03:00−17˚wsw01650 0.0 103920
06:00−18˚w11690 0.0 104020
09:00−17˚nne11630 0.0 103920
12:00−13˚n00710 0.0 103730
15:00−12˚wsw12720 0.0 103621
18:00−13˚wsw22600 0.0 103721
21:00−14˚wsw11580 0.0 103621
4 december, fri
fri400:00−14˚w116526 0.0 103520
03:00−13˚w2266100 0.0 103421
06:00−12˚w2268100 0.0 103321
09:00−11˚w3374100 0.0 103271
12:00−8˚w2487100 0.1 1031166
15:00−7˚nnw1195100 0.4 103178
18:00−8˚nnw0097100 0.9 103121
21:00−9˚wnw1197100 0.5 103221
5 december, sat
sat500:00−9˚w119697 0.8 103221
03:00−10˚w129697 0.1 103221
06:00−12˚wsw119591 0.1 103221
09:00−11˚w229690 0.1 103344
12:00−8˚nw119295 0.1 1033119
15:00−9˚nw1198100 0.0 103321
18:00−11˚wsw0095100 0.0 103421
21:00−11˚sw0092100 0.0 103521
6 december, sun
sun600:00−12˚sw1193100 0.0 103621
03:00−13˚s008990 0.0 103721
06:00−12˚ese008591 0.0 103721
09:00−12˚e018490 0.0 103821
12:00−9˚nne118981 0.0 103892
15:00−10˚nnw009550 0.0 103821
18:00−14˚se119134 0.0 103921
21:00−14˚sse11860 0.0 103921
7 december, mon
mon700:00−15˚se118821 0.0 103920
03:00−16˚sse119075 0.0 103820
06:00−16˚sw119067 0.0 103620
09:00−15˚wsw128923 0.0 103620
12:00−12˚nw119220 0.0 1034124
15:00−13˚wsw119476 0.0 103221
18:00−15˚sw118979 0.0 103220
21:00−16˚wsw118865 0.0 103220